Concordia, KS

9:43 AM CST on December 06, 2019 (GMT -0600)
Blosser Municipal

Weather History for KCNK - October, 2019

Change the Weather History Date:

Sunday, October 13, 2019

  Actual Average Record
Temperature  
Mean Temperature 52 °F 57 °F  
Max Temperature 67 °F 68 °F 90 °F (1975)
Min Temperature 37 °F 45 °F 29 °F (2016)
Degree Days  
Heating Degree Days 13 9  
Month to date heating degree days 110 97  
Since 1 July heating degree days 113 170  
Cooling Degree Days 0 1  
Month to date cooling degree days 6 17  
Year to date cooling degree days 1654 1343  
Growing Degree Days 2 (Base 50)    
Moisture  
Dew Point 28 °F    
Average Humidity 46    
Maximum Humidity 70    
Minimum Humidity 22    
Precipitation  
Precipitation 0.00 in 0.06 in 2.48 in (2012)
Month to date precipitation 1.05 0.90  
Year to date precipitation 32.07 24.91  
Snow  
Snow 0.00 in 0.00 in 0.00 in ()
Month to date snowfall 0.0 0.0  
Year to date snowfall 32.3 13.7  
Since 1 July snowfall 0.0 0.0  
Snow Depth 0.00 in    
Sea Level Pressure  
Sea Level Pressure 29.97 in    
Wind  
Wind Speed 3 mph (NE)    
Max Wind Speed 10 mph    
Max Gust Speed 14 mph    
Visibility 9 miles    
Events      
T = Trace of Precipitation, MM = Missing Value Source: NWS Daily Summary

Daily Weather History Graph

Daily Weather History Graph

Search for Another Location

Airport or City:

Astronomy

Oct. 13, 2019 Rise Set
Actual Time 7:38 AM CDT 6:54 PM CDT
Civil Twilight 7:11 AM CDT 7:21 PM CDT
Nautical Twilight 6:40 AM CDT 7:52 PM CDT
Astronomical Twilight 6:08 AM CDT 8:23 PM CDT
Moon 7:17 PM CDT (10/13) 7:14 AM CDT (10/13)
Length of Visible Light 12h 10m
Length of Day
11h 16m
Full, 100% of the Moon is Illuminated
Oct 13
Full
Oct 13
Full
Oct 21
Last Quarter
Oct 27
New
Nov 4
First Quarter

Hourly Weather History & Observations

Time (CDT) Temp. Windchill Dew Point Humidity Pressure Visibility Wind Dir Wind Speed Gust Speed Precip Events Conditions
12:55 AM 42.1 °F 36.6 °F 28.9 °F 60% 29.89 in 10.0 mi North 9.2 mph - N/A   Clear
1:55 AM 42.1 °F - 28.0 °F 58% 29.92 in 10.0 mi Calm Calm - N/A   Clear
2:55 AM 43.0 °F 40.3 °F 27.0 °F 53% 29.94 in 10.0 mi SE 4.6 mph - N/A   Clear
3:55 AM 39.0 °F 36.8 °F 28.0 °F 65% 29.94 in 10.0 mi North 3.5 mph - N/A   Clear
4:55 AM 39.9 °F 36.7 °F 28.0 °F 63% 29.92 in 10.0 mi NNE 4.6 mph - N/A   Clear
6:55 AM 37.9 °F - 24.1 °F 57% 29.96 in 10.0 mi Calm Calm - N/A   Clear
7:55 AM 39.9 °F - 23.0 °F 51% 29.98 in 10.0 mi Calm Calm - N/A   Clear
8:55 AM 46.0 °F - 25.0 °F 44% 29.99 in 10.0 mi Calm Calm - N/A   Clear
9:55 AM 48.0 °F - 28.0 °F 46% 30.00 in 10.0 mi NNE 3.5 mph - N/A   Clear
10:55 AM 54.0 °F - 27.0 °F 35% 30.01 in 10.0 mi NE 8.1 mph - N/A   Clear
11:55 AM 57.9 °F - 27.0 °F 31% 30.01 in 10.0 mi ENE 5.8 mph - N/A   Clear
12:55 PM 62.1 °F - 27.0 °F 26% 30.00 in 10.0 mi North 6.9 mph - N/A   Clear
1:55 PM 64.0 °F - 26.1 °F 24% 29.98 in 10.0 mi Variable 3.5 mph - N/A   Clear
2:55 PM 64.9 °F - 26.1 °F 23% 29.96 in 10.0 mi North 4.6 mph - N/A   Clear
3:55 PM 66.9 °F - 27.0 °F 22% 29.95 in 10.0 mi Variable 4.6 mph - N/A   Clear
4:55 PM 66.9 °F - 26.1 °F 21% 29.95 in 8.0 mi North 4.6 mph - N/A   Clear
5:55 PM 64.9 °F - 27.0 °F 24% 29.95 in 4.0 mi Calm Calm - N/A   Haze
6:55 PM 62.1 °F - 30.0 °F 30% 29.97 in 4.0 mi Calm Calm - N/A   Haze
7:55 PM 55.9 °F - 28.9 °F 36% 29.99 in 10.0 mi Calm Calm - N/A   Clear
8:55 PM 52.0 °F - 30.9 °F 45% 29.99 in 7.0 mi South 4.6 mph - N/A   Clear
9:55 PM 50.0 °F - 30.9 °F 48% 30.00 in 10.0 mi South 8.1 mph - N/A   Clear
10:55 PM 51.1 °F - 30.0 °F 44% 29.99 in 10.0 mi South 3.5 mph - N/A   Clear
11:55 PM 43.0 °F - 33.1 °F 68% 29.99 in 10.0 mi Calm Calm - N/A   Clear